Regional Weather Roundup
Issued by NWS

Home | Current Version | Previous Version | Graphics & Text | Print | Product List | Glossary On
Versions: 1 2 3 4 5 6 7 8 9 10 11 12 13 14 15 16 17 18 19 20 21 22 23 24 25 26 27 28 29 30 31 32 33 34 35 36 37 38 39 40 41 42 43 44 45 46 47 48 49 50
000
ASUS43 KOAX 192310
RWRNE

WEATHER ROUNDUP FOR NEBRASKA
NATIONAL WEATHER SERVICE OMAHA NE
600 PM CDT SUN OCT 19 2014

NOTES: SATELLITE DATA IS BEING USED TO AUGMENT CLOUD COVER ABOVE
       12000 FEET.
       "FAIR" INDICATES FEW OR NO CLOUDS BELOW 12,000 FEET WITH NO
       SIGNIFICANT WEATHER AND/OR OBSTRUCTIONS TO VISIBILITY.

  * THESE STATIONS DO NOT REPORT WEATHER SUCH AS RAIN...SNOW OR FOG.

NEZ001>004-019>022-054>056-200000-
NEBRASKA PANHANDLE

CITY           SKY/WX    TMP DP  RH WIND       PRES   REMARKS
SCOTTSBLUFF    SUNNY     73  43  33 S6        30.06R
ALLIANCE       SUNNY     72  40  31 NE6       30.05S
CHADRON        SUNNY     73  41  31 CALM      30.04S
KIMBALL        SUNNY     70  35  27 E6        30.08S
SIDNEY         SUNNY     72  37  28 E3        30.07S
$$

NEZ057>060-069>072-079>082-200000-
SOUTHWEST NEBRASKA

CITY           SKY/WX    TMP DP  RH WIND       PRES   REMARKS
NORTH PLATTE   CLEAR     75  39  27 NE6       29.98S
IMPERIAL       SUNNY     74  38  27 E10       30.01R
LEXINGTON      CLEAR     73  48  42 CALM      29.98R
MCCOOK         CLEAR     72  47  40 NE7       29.99R
OGALLALA       CLEAR     77  36  22 E9        30.01S
$$

NEZ005>010-023>029-035>040-094-200000-
NORTH CENTRAL NEBRASKA

CITY           SKY/WX    TMP DP  RH WIND       PRES   REMARKS
VALENTINE      CLEAR     75  36  24 N12       30.00R
AINSWORTH      CLEAR     72  37  28 N10       29.99R
BROKEN BOW     CLEAR     77  43  29 CALM      29.97S
O`NEILL        CLEAR     73  43  34 N5        29.96R
ORD            CLEAR     76  43  30 CALM      29.94S
THEDFORD       CLEAR     75  41  29 NE3       30.00S
$$

NEZ041-046>049-061>064-073>077-083>087-200000-
SOUTH CENTRAL NEBRASKA

CITY           SKY/WX    TMP DP  RH WIND       PRES   REMARKS
GRAND ISLAND   CLEAR     72  50  45 W6        29.97R
AURORA         CLEAR     72  44  36 SW7       29.96S
HASTINGS       CLEAR     71  45  39 SW5       29.97R
HEBRON         CLEAR     71  46  41 SW7       29.96F
HOLDREGE         N/A     70  46  42 CALM      29.98R
KEARNEY *      CLEAR     72  46  40 SW5       29.98S
YORK           CLEAR     72  48  43 W9        29.96S
$$

NEZ011>018-030>034-042>045-200000-
NORTHEAST NEBRASKA

CITY           SKY/WX    TMP DP  RH WIND       PRES   REMARKS
NORFOLK        CLEAR     72  47  40 W5        29.92S
ALBION         CLEAR     73  42  33 NW5       29.95R
BLAIR          CLEAR     72  47  41 SW8       29.93S
COLUMBUS *     CLEAR     72  46  40 W7        29.95S
FREMONT        CLEAR     73  47  40 W7        29.93S
TEKAMAH        CLEAR     73  48  41 W9        29.91S
WAYNE          CLEAR     73  44  36 W5        29.91F
$$

NEZ050>053-065>068-078-088>093-200000-
SOUTHEAST NEBRASKA

CITY           SKY/WX    TMP DP  RH WIND       PRES   REMARKS
LINCOLN        CLEAR     71  47  42 SW9       29.96R
OMAHA EPPLEY   PTCLDY    71  47  42 SW8       29.93S
BEATRICE       CLEAR     69  49  48 SW8       29.96S
FALLS CITY     CLEAR     69  47  45 SW8       29.97S
NEBRASKA CITY  PTCLDY    68  42  38 SW8       29.96S
PLATTSMOUTH    PTCLDY    69  45  41 SW6       29.95R
$$

NEZ044-045-051>053-067-200000-
OMAHA AREA

CITY           SKY/WX    TMP DP  RH WIND       PRES   REMARKS
OMAHA EPPLEY   PTCLDY    71  47  42 SW8       29.93S
BLAIR          CLEAR     72  47  41 SW8       29.93S
FREMONT        CLEAR     73  47  40 W7        29.93S
MILLARD        PTCLDY    72  49  44 SW5       29.93S
OFFUTT AFB     PTCLDY    71  50  48 SW7       29.93S
PLATTSMOUTH    PTCLDY    69  45  41 SW6       29.95R
WAHOO          FAIR      72  44  36 SW8       29.93F
$$



USA.gov is the U.S. government's official web portal to all federal, state and local government web resources and services.